Weather History for Springfield, IL

Change the Weather History Date:

Sunday, January 6, 2013

  Actual Average Record
Temperature  
Mean Temperature 28 °F 27 °F  
Max Temperature 37 °F 35 °F 68 °F (1907)
Min Temperature 19 °F 19 °F -14 °F (1970)
Degree Days  
Heating Degree Days 37 38  
Month to date heating degree days 257 228  
Since 1 July heating degree days 2137 2368  
Cooling Degree Days 0 0  
Month to date cooling degree days 0 0  
Year to date cooling degree days 0 0  
Moisture  
Dew Point 24 °F    
Average Humidity 78    
Maximum Humidity 92    
Minimum Humidity 63    
Precipitation  
Precipitation 0.00 in 0.06 in 1.64 in (1888)
Month to date precipitation 0.02 0.41  
Year to date precipitation 0.02 0.41  
Snow  
Snow 0.00 in 0.20 in 6.20 in (1962)
Month to date snowfall T 1.3  
Since 1 July snowfall 4.6 7.5  
Snow Depth T in    
Sea Level Pressure  
Sea Level Pressure 30.23 in    
Wind  
Wind Speed 10 mph (WNW)    
Max Wind Speed 24 mph    
Max Gust Speed 30 mph    
Visibility 10 miles    
Events      
T = Trace of Precipitation, MM = Missing Value Source: NWS Daily Summary

Daily Weather History Graph

Daily Weather History Graph

Search for Another Location

Airport:

Trip Planner

Search our weather history database for the weather conditions in past years. The results will help you decide how hot, cold, wet, or windy it might be!

Date:

Astronomy

Jan. 06, 2013 Rise Set
Actual Time 7:20 AM CST 4:49 PM CST
Civil Twilight 6:50 AM CST 5:19 PM CST
Nautical Twilight 6:16 AM CST 5:53 PM CST
Astronomical Twilight 5:43 AM CST 6:25 PM CST
Moon 1:34 AM CST (1/6) 12:16 PM CST (1/6)
Length of Visible Light 10h 29m
Length of Day
9h 29m
Waning Crescent, 33% of the Moon is Illuminated
Jan 6
Waning Crescent
Jan 11
New
Jan 18
First Quarter
Jan 26
Full
Feb 3
Last Quarter

Hourly Weather History & Observations

Time (CST) Temp. Windchill Dew Point Humidity Pressure Visibility Wind Dir Wind Speed Gust Speed Precip Events Conditions
12:52 AM 37.0 °F 31.0 °F 33.1 °F 86% 30.05 in 10.0 mi SW 8.1 mph - N/A   Overcast
1:52 AM 37.0 °F 30.4 °F 33.1 °F 86% 30.05 in 10.0 mi SW 9.2 mph - N/A   Overcast
2:24 AM 35.6 °F 25.9 °F 33.8 °F 93% 30.04 in 10.0 mi West 16.1 mph - N/A   Overcast
2:52 AM 36.0 °F 26.3 °F 32.0 °F 86% 30.06 in 10.0 mi West 16.1 mph 25.3 mph N/A   Overcast
3:52 AM 32.0 °F 21.6 °F 26.1 °F 79% 30.08 in 10.0 mi WNW 15.0 mph 25.3 mph N/A   Overcast
4:03 AM 32.0 °F 23.6 °F 26.6 °F 80% 30.06 in 10.0 mi WNW 10.4 mph - N/A   Overcast
4:52 AM 30.9 °F 20.7 °F 25.0 °F 79% 30.09 in 10.0 mi WNW 13.8 mph - N/A   Overcast
5:52 AM 30.9 °F 22.2 °F 26.1 °F 82% 30.11 in 10.0 mi WNW 10.4 mph - N/A   Overcast
6:52 AM 30.0 °F 19.1 °F 24.1 °F 79% 30.14 in 10.0 mi WNW 15.0 mph 19.6 mph N/A   Overcast
7:52 AM 28.9 °F 16.9 °F 24.1 °F 82% 30.17 in 7.0 mi NW 17.3 mph 21.9 mph N/A   Overcast
8:52 AM 28.0 °F 15.3 °F 21.9 °F 78% 30.20 in 6.0 mi WNW 18.4 mph - N/A   Haze
9:52 AM 28.0 °F 14.6 °F 21.0 °F 75% 30.23 in 8.0 mi WNW 20.7 mph 25.3 mph N/A   Mostly Cloudy
10:05 AM 26.6 °F 13.1 °F 21.2 °F 80% 30.22 in 9.0 mi NW 19.6 mph 29.9 mph N/A   Scattered Clouds
10:52 AM 28.0 °F 14.9 °F 21.9 °F 78% 30.25 in 9.0 mi WNW 19.6 mph 26.5 mph N/A   Partly Cloudy
11:52 AM 28.9 °F 18.2 °F 23.0 °F 78% 30.25 in 9.0 mi WNW 13.8 mph 23.0 mph N/A   Scattered Clouds
12:00 PM 30.2 °F 19.8 °F 23.0 °F 75% 30.23 in 9.0 mi NW 13.8 mph - N/A   Mostly Cloudy
12:52 PM 30.0 °F 20.0 °F 23.0 °F 75% 30.26 in 10.0 mi NNW 12.7 mph 20.7 mph N/A   Overcast
1:52 PM 30.9 °F 21.7 °F 24.1 °F 76% 30.27 in 10.0 mi West 11.5 mph - N/A   Mostly Cloudy
2:16 PM 30.2 °F 21.3 °F 23.0 °F 75% 30.27 in 10.0 mi NW 10.4 mph - N/A   Scattered Clouds
2:52 PM 32.0 °F 22.5 °F 24.1 °F 73% 30.30 in 10.0 mi West 12.7 mph - N/A   Scattered Clouds
3:52 PM 32.0 °F 24.2 °F 21.0 °F 64% 30.32 in 10.0 mi WNW 9.2 mph - N/A   Clear
4:52 PM 28.9 °F 23.9 °F 19.9 °F 69% 30.33 in 10.0 mi NW 4.6 mph - N/A   Clear
5:52 PM 28.0 °F 24.2 °F 23.0 °F 81% 30.37 in 10.0 mi West 3.5 mph - N/A   Clear
6:52 PM 26.1 °F 19.4 °F 21.9 °F 84% 30.39 in 10.0 mi West 5.8 mph - N/A   Clear
7:52 PM 26.1 °F 21.9 °F 21.9 °F 84% 30.39 in 10.0 mi WNW 3.5 mph - N/A   Clear
8:52 PM 24.1 °F - 21.9 °F 91% 30.39 in 10.0 mi Calm Calm - N/A   Clear
9:52 PM 21.9 °F - 19.0 °F 89% 30.39 in 10.0 mi Calm Calm - N/A   Clear
10:52 PM 21.0 °F - 19.0 °F 92% 30.39 in 10.0 mi Calm Calm - N/A   Clear
11:52 PM 19.9 °F - 18.0 °F 92% 30.39 in 10.0 mi Calm Calm - N/A   Clear